| time (UTC) | temp F | wind direction | speed knots | gust knots | rain 1hr in | rain 24hr in | rain mn in | humidity % | barometer mb |
| 20260510043104 | 48 | 9 | 5.2 | 7.8 | 0.00 | 0.00 | 0.00 | 90 | 1013.1 |
| 20260510041529 | 48 | 22 | 2.6 | 5.2 | 0.00 | 0.00 | 0.00 | 90 | 1013.1 |
| 20260510040057 | 48 | 50 | 2.6 | 5.2 | 0.00 | 0.00 | 0.00 | 89 | 1013.1 |
| 20260510034529 | 48 | 20 | 3.5 | 5.2 | 0.00 | 0.00 | 0.00 | 89 | 1013.0 |
| 20260510033007 | 48 | 28 | 3.5 | 6.1 | 0.00 | 0.00 | 0.00 | 89 | 1013.1 |
| 20260510031544 | 48 | 15 | 3.5 | 5.2 | 0.00 | 0.00 | 0.00 | 88 | 1013.3 |
| 20260510030010 | 48 | 17 | 3.5 | 4.3 | 0.00 | 0.00 | 0.00 | 88 | 1013.3 |
| 20260510023022 | 48 | 22 | 3.5 | 4.3 | 0.00 | 0.00 | 0.00 | 88 | 1013.5 |
| 20260510021557 | 49 | 5 | 2.6 | 4.3 | 0.00 | 0.00 | 0.00 | 86 | 1013.5 |
| 20260510020027 | 49 | 5 | 2.6 | 4.3 | 0.00 | 0.00 | 0.00 | 85 | 1013.6 |
| 20260510014613 | 50 | 40 | 3.5 | 7.0 | 0.00 | 0.00 | 0.00 | 85 | 1013.7 |
| 20260510013052 | 49 | 35 | 4.3 | 7.0 | 0.00 | 0.00 | 0.00 | 86 | 1013.6 |
| 20260510011541 | 50 | 20 | 4.3 | 5.2 | 0.00 | 0.00 | 0.00 | 85 | 1013.8 |
| 20260510010014 | 50 | 15 | 4.3 | 6.1 | 0.00 | 0.00 | 0.00 | 86 | 1014.0 |
| 20260510004506 | 49 | 22 | 3.5 | 5.2 | 0.00 | 0.00 | 0.00 | 86 | 1014.1 |
| 20260510003057 | 49 | 16 | 3.5 | 4.3 | 0.00 | 0.00 | 0.00 | 84 | 1014.3 |
| 20260510001532 | 50 | 355 | 2.6 | 4.3 | 0.00 | 0.00 | 0.00 | 83 | 1014.4 |
| 20260510000019 | 51 | 26 | 2.6 | 4.3 | 0.00 | 0.00 | 0.00 | 82 | 1014.5 |
| 20260509234609 | 51 | 29 | 2.6 | 6.1 | 0.00 | 0.00 | 0.00 | 82 | 1014.6 |
| 20260509233042 | 50 | 26 | 3.5 | 7.0 | 0.00 | 0.00 | 0.00 | 84 | 1014.5 |
| 20260509231515 | 50 | 9 | 3.5 | 5.2 | 0.00 | 0.00 | 0.00 | 83 | 1014.6 |
| 20260509230057 | 50 | 5 | 3.5 | 4.3 | 0.00 | 0.00 | 0.00 | 82 | 1014.6 |
| 20260509224535 | 51 | 11 | 3.5 | 6.1 | 0.00 | 0.00 | 0.00 | 80 | 1014.7 |
| 20260509223102 | 52 | 5 | 4.3 | 6.1 | 0.00 | 0.00 | 0.00 | 80 | 1014.8 |
| 20260509221538 | 52 | 5 | 4.3 | 6.1 | 0.00 | 0.00 | 0.00 | 80 | 1014.8 |
| 20260509220033 | 53 | 28 | 2.6 | 5.2 | 0.00 | 0.00 | 0.00 | 78 | 1015.0 |
| 20260509214628 | 54 | 26 | 2.6 | 5.2 | 0.00 | 0.00 | 0.00 | 77 | 1014.9 |
| 20260509213034 | 54 | 17 | 3.5 | 5.2 | 0.00 | 0.00 | 0.00 | 76 | 1014.8 |
| 20260509211519 | 54 | 5 | 4.3 | 6.1 | 0.00 | 0.00 | 0.00 | 76 | 1014.9 |
| 20260509210011 | 54 | 41 | 2.6 | 4.3 | 0.00 | 0.00 | 0.00 | 76 | 1015.0 |
| 20260509204551 | 55 | 38 | 2.6 | 4.3 | 0.00 | 0.00 | 0.00 | 75 | 1015.0 |
| 20260509203056 | 55 | 10 | 3.5 | 5.2 | 0.00 | 0.00 | 0.00 | 74 | 1014.9 |
| 20260509201508 | 55 | 30 | 2.6 | 4.3 | 0.00 | 0.00 | 0.00 | 73 | 1014.9 |
| 20260509200046 | 56 | 31 | 2.6 | 4.3 | 0.00 | 0.00 | 0.00 | 72 | 1014.9 |
| 20260509194533 | 57 | 57 | 2.6 | 6.1 | 0.00 | 0.00 | 0.00 | 71 | 1014.8 |
| 20260509193024 | 58 | 24 | 2.6 | 6.1 | 0.00 | 0.00 | 0.00 | 69 | 1014.8 |
| 20260509191510 | 59 | 35 | 3.5 | 6.1 | 0.00 | 0.00 | 0.00 | 69 | 1014.5 |
| 20260509190034 | 60 | 30 | 3.5 | 7.8 | 0.00 | 0.00 | 0.00 | 67 | 1014.5 |
| 20260509184531 | 60 | 360 | 4.3 | 8.7 | 0.00 | 0.00 | 0.00 | 68 | 1014.4 |
| 20260509183058 | 61 | 22 | 3.5 | 6.1 | 0.00 | 0.00 | 0.00 | 67 | 1014.5 |
| 20260509181540 | 63 | 11 | 3.5 | 5.2 | 0.00 | 0.00 | 0.00 | 65 | 1014.5 |
| 20260509180034 | 64 | 16 | 3.5 | 7.8 | 0.00 | 0.00 | 0.00 | 61 | 1014.4 |
| 20260509174532 | 66 | 22 | 6.1 | 9.6 | 0.00 | 0.00 | 0.00 | 58 | 1014.3 |
| 20260509173020 | 67 | 16 | 6.1 | 10.4 | 0.00 | 0.00 | 0.00 | 56 | 1014.2 |
| 20260509171512 | 67 | 24 | 3.5 | 10.4 | 0.00 | 0.00 | 0.00 | 59 | 1014.5 |
| 20260509170100 | 67 | 42 | 7.0 | 12.2 | 0.00 | 0.00 | 0.00 | 56 | 1014.3 |
| 20260509164530 | 69 | 19 | 6.1 | 8.7 | 0.00 | 0.00 | 0.00 | 54 | 1014.2 |
| 20260509163031 | 70 | 49 | 4.3 | 11.3 | 0.00 | 0.00 | 0.00 | 53 | 1014.3 |
| 20260509161507 | 70 | 26 | 4.3 | 11.3 | 0.00 | 0.00 | 0.00 | 50 | 1014.1 |
| 20260509160051 | 70 | 17 | 4.3 | 10.4 | 0.00 | 0.00 | 0.00 | 53 | 1014.2 |
| 20260509154538 | 71 | 355 | 4.3 | 8.7 | 0.00 | 0.00 | 0.00 | 52 | 1014.2 |
| 20260509153031 | 71 | 17 | 5.2 | 7.8 | 0.00 | 0.00 | 0.00 | 49 | 1014.4 |
| 20260509151507 | 70 | 42 | 4.3 | 14.8 | 0.00 | 0.00 | 0.00 | 52 | 1014.5 |
| 20260509150029 | 71 | 25 | 7.0 | 9.6 | 0.00 | 0.00 | 0.00 | 50 | 1014.5 |
| 20260509144514 | 71 | 36 | 6.1 | 10.4 | 0.00 | 0.00 | 0.00 | 50 | 1014.6 |
| 20260509143008 | 71 | 17 | 1.7 | 8.7 | 0.00 | 0.00 | 0.00 | 49 | 1014.8 |
| 20260509141508 | 70 | 14 | 0.9 | 6.1 | 0.00 | 0.00 | 0.00 | 54 | 1015.0 |
| 20260509140051 | 70 | 13 | 5.2 | 9.6 | 0.00 | 0.00 | 0.00 | 50 | 1015.0 |
| 20260509134544 | 69 | 5 | 2.6 | 7.0 | 0.00 | 0.00 | 0.00 | 51 | 1015.1 |
| 20260509133041 | 70 | 21 | 3.5 | 9.6 | 0.00 | 0.00 | 0.00 | 51 | 1015.4 |
| 20260509131522 | 68 | 24 | 4.3 | 6.1 | 0.00 | 0.00 | 0.00 | 57 | 1015.5 |
| 20260509130030 | 67 | 22 | 5.2 | 10.4 | 0.00 | 0.00 | 0.00 | 53 | 1015.5 |
| 20260509124520 | 68 | 15 | 5.2 | 11.3 | 0.00 | 0.00 | 0.00 | 52 | 1015.6 |
| 20260509123009 | 70 | 360 | 5.2 | 11.3 | 0.00 | 0.00 | 0.00 | 54 | 1015.7 |
| 20260509121528 | 70 | 24 | 3.5 | 7.8 | 0.00 | 0.00 | 0.00 | 54 | 1015.8 |
| 20260509120059 | 69 | 5 | 6.1 | 11.3 | 0.00 | 0.00 | 0.00 | 51 | 1016.1 |
| 20260509114553 | 68 | 38 | 6.1 | 11.3 | 0.00 | 0.00 | 0.00 | 54 | 1016.2 |
| 20260509113027 | 70 | 25 | 7.0 | 11.3 | 0.00 | 0.00 | 0.00 | 49 | 1016.4 |
| 20260509111513 | 70 | 98 | 3.5 | 7.0 | 0.00 | 0.00 | 0.00 | 53 | 1016.6 |
| 20260509110039 | 69 | 12 | 4.3 | 8.7 | 0.00 | 0.00 | 0.00 | 53 | 1016.7 |
| 20260509104519 | 69 | 69 | 5.2 | 8.7 | 0.00 | 0.00 | 0.00 | 55 | 1016.9 |
| 20260509103018 | 68 | 16 | 4.3 | 9.6 | 0.00 | 0.00 | 0.00 | 56 | 1016.9 |
| 20260509101610 | 68 | 5 | 7.0 | 8.7 | 0.00 | 0.00 | 0.00 | 54 | 1016.9 |
| 20260509100041 | 68 | 53 | 5.2 | 10.4 | 0.00 | 0.00 | 0.00 | 53 | 1017.1 |
| 20260509094521 | 67 | 360 | 5.2 | 8.7 | 0.00 | 0.00 | 0.00 | 56 | 1017.1 |
| 20260509093017 | 66 | 25 | 6.1 | 10.4 | 0.00 | 0.00 | 0.00 | 56 | 1017.2 |
| 20260509091548 | 66 | 28 | 7.0 | 10.4 | 0.00 | 0.00 | 0.00 | 54 | 1017.3 |
| 20260509090024 | 66 | 29 | 5.2 | 7.8 | 0.00 | 0.00 | 0.00 | 58 | 1017.2 |
| 20260509084551 | 65 | 38 | 3.5 | 9.6 | 0.00 | 0.00 | 0.00 | 59 | 1017.3 |
| 20260509083029 | 65 | 18 | 5.2 | 7.8 | 0.00 | 0.00 | 0.00 | 60 | 1017.2 |
| 20260509081549 | 64 | 13 | 2.6 | 8.7 | 0.00 | 0.00 | 0.00 | 64 | 1017.3 |
| 20260509080020 | 63 | 76 | 3.5 | 10.4 | 0.00 | 0.00 | 0.00 | 64 | 1017.4 |
| 20260509074551 | 63 | 5 | 3.5 | 6.1 | 0.00 | 0.00 | 0.00 | 67 | 1017.4 |
| 20260509073028 | 62 | 100 | 1.7 | 7.8 | 0.00 | 0.00 | 0.00 | 67 | 1017.5 |
| 20260509071611 | 60 | 135 | 2.6 | 8.7 | 0.00 | 0.00 | 0.00 | 71 | 1017.5 |
| 20260509070031 | 59 | 17 | 1.7 | 5.2 | 0.00 | 0.00 | 0.00 | 74 | 1017.5 |
| 20260509064554 | 57 | 47 | 1.7 | 6.1 | 0.00 | 0.00 | 0.00 | 75 | 1017.6 |
| 20260509063032 | 56 | 126 | 1.7 | 4.3 | 0.00 | 0.00 | 0.00 | 77 | 1017.5 |
| 20260509061552 | 54 | 59 | 0.9 | 4.3 | 0.00 | 0.00 | 0.00 | 80 | 1017.5 |
| 20260509060016 | 52 | 56 | 2.6 | 6.1 | 0.00 | 0.00 | 0.00 | 81 | 1017.5 |
| 20260509054550 | 51 | 68 | 1.7 | 5.2 | 0.00 | 0.00 | 0.00 | 83 | 1017.5 |
| 20260509053019 | 49 | 83 | 1.7 | 4.3 | 0.00 | 0.00 | 0.00 | 86 | 1017.3 |
| 20260509051551 | 48 | 44 | 0.9 | 3.5 | 0.00 | 0.00 | 0.00 | 87 | 1017.1 |
| 20260509050018 | 47 | 26 | 1.7 | 3.5 | 0.00 | 0.00 | 0.00 | 89 | 1017.1 |
| 20260509044702 | 46 | 53 | 1.7 | 4.3 | 0.00 | 0.00 | 0.00 | 90 | 1017.1 |